GSAT0221 (GALILEO 25)

Last updated on Thu May 15 2025 00:02:30 GMT+0000 (Coordinated Universal Time)

1 43564U 18060A 25134.18737951 -.00000074 00000+0 00000+0 0 9993 2 43564 57.2741 352.5491 0003286 314.0382 45.9828 1.70475866 42364
UTC large
Height (km)
Speed (km/s)
/
Latitude / Longitude
Inclination (degrees)
Orbital Period (minutes)
Azimuth
Elevation
Range (km)
Doppler Factor

Next 0 passes for location: London (51.5072 / 0.1276)

Sorry there are no passes over London.